COSMOS 1749

Satellite information

Favourite Embed

Satellite Type and Status

PAYLOADIN ORBIT

Key statistics

Satellite COSMOS 1749 at a glance.

Uptime

14390

Days in orbit

Revolutions

≈ 12.6

Per day

Orbit

LEO

Low Earth Orbit

Inclination

74.0

Latest

Satellite identification and parameters

Extended collection of information and parameters for COSMOS 1749.

Object identification

Identified? True

Debris? False

Object name: COSMOS 1749

International designator: 1986-042B

Object number (NORAD): 16759

Object ID (CCSDS): 16759

Country: COMMONWEALTH OF INDEPENDENT STATES (CIS)

Current information (Y/N): Y

RCS size: MEDIUM

Orbital parameters

Period: 114.458 minutes

Inclination: 74.0196 deg

SMA: 7808.918 km

Apoapsis: 1467.872 km

Periapsis: 1393.694 km

RAAN: 339.2637 deg

Eccentricy: 0.00474962

Argument of periapsis: 121.8246 deg

Mean anomaly: 37.4819 deg

Mean motion: 12.58103801 rev/day

Mean motion (dot): -0.00000002 rev/day2

B* drag term: 0.000079954202 1/REarth

Two-line elements (TLE)

Creation date: Oct. 28, 2025, 7:11 p.m.

Reference frame: TEME

Reference center: EARTH

Epoch: Oct. 28, 2025, 12:21 p.m. UTC

TLE line 0: 0 COSMOS 1749

TLE line 1: 1 16759U 86042B 25301.51510667 -.00000002 00000-0 79954-4 0 9991

TLE line 2: 2 16759 74.0196 339.2637 0047496 121.8246 37.4819 12.58103801809305

Live tracking on map

Real-time ground track for satellite COSMOS 1749.

In-orbit conjunctions

There are no conjunctions computed for COSMOS 1749, at the moment. Check back to stay up to date, as we update our databases every day.

Go to all conjunctions

Associated space launch

Military communications satellites

COSMOS 1749 was lifted into orbit during the mission ‘Kosmos-3M | Strela-1M 305-312’, on board a Kosmos-3M space rocket.

The launch took place on June 6, 1986, 3:57 a.m. from 132/1 (132L).

For more information about the launch, click the button.

Launch to space Kosmos-3M | Strela-1M 305-312
Kosmos-3M | Strela-1M 305-312

Agency: N/A

Status: Launch Successful

Launch date: June 6, 1986, 3:57 a.m. UTC

Rocket: Kosmos-3M

Launch pad: 132/1 (132L)

Location: Plesetsk Cosmodrome, Russian Federation

...

Latest news about this satellite

There are no fresh news available about this satellite. Check back as we update our databases every day.


Newsletter sign-up

Weekly statistics, charts and insights to help you stay on top of the space industry.